{"data":{"norad_id":62679,"epoch":"2026-05-24T04:36:22.151520Z","epoch_age_seconds":144796,"freshness":"FRESH","line1":"1 62679U 25009BY  26144.19192305  .00029922  00000+0  10203-2 0  9994","line2":"2 62679  97.3919 225.5558 0004044  75.9264 284.2426 15.30302779132873","mean_motion":15.30302779,"eccentricity":0.0004044,"inclination_deg":97.3919,"raan_deg":225.5558,"arg_perigee_deg":75.9264,"mean_anomaly_deg":284.2426,"bstar":0.0010203,"rev_number":13287,"period_min":94.099025353727,"perigee_km":472.13683554544,"apogee_km":477.67957850889,"semimajor_km":6853.0452070272,"source":"CELESTRAK","updated_at":"2026-05-25T13:38:13.343069Z"}}